431  
ASUS41 KGYX 190910  
RWRGYX  
WEATHER ROUNDUP FOR MAINE AND NEW HAMPSHIRE  
NATIONAL WEATHER SERVICE GRAY ME  
500 AM EDT FRI OCT 19 2018  
 
MEZ002-005-006-010-012-015-018-020-021-024-026-027-029-191000-  
MAINE  
 
CITY SKY/WX TMP DP RH WIND PRES REMARKS
 
PORTLAND MOCLDY 37 22 54 SW7 30.19F  
SANFORD MOCLDY 31 23 72 SW5 30.20F  
BAR HARBOR CLOUDY 36 22 56 CALM 30.17S  
WISCASSET CLOUDY 34 29 82 CALM 30.19F  
ROCKLAND CLOUDY 34 27 75 CALM 30.17F  
FRYEBURG CLOUDY 34 22 61 S3 30.15F  
LEWISTONAUBURN CLOUDY 34 24 67 S7 30.16F  
AUGUSTA CLOUDY 33 22 63 S5 30.15F  
WATERVILLE CLOUDY 34 21 59 VRB3 30.12F  
BANGOR CLOUDY 34 22 61 S3 30.15F  
GREENVILLE N/A 29 20 69 CALM 30.03F  
MILLINOCKET CLOUDY 31 19 61 CALM 30.12S  
HOULTON FAIR 22 17 81 SW3 30.08R  
PRESQUE ISLE FAIR 24 16 71 W5 30.07R  
FRENCHVILLE FAIR 24 14 65 W7 30.01R  
CARIBOU FAIR 24 14 65 W3 30.04S  

 
 
NHZ002-005-008-009-011-012-014-191000-  
NEW HAMPSHIRE  
 
CITY SKY/WX TMP DP RH WIND PRES REMARKS
 
PORTSMOUTH MOCLDY 29 23 78 CALM 30.20F  
ROCHESTER MOCLDY 30 25 81 CALM 30.19F  
NASHUA FAIR 26 25 96 VRB3 30.23F  
MANCHESTER MOCLDY 30 25 81 S3 30.20F  
CONCORD CLOUDY 26 23 88 CALM 30.19F  
LACONIA FAIR 32 22 66 SW7 30.17F  
PLYMOUTH FAIR 26 25 94 CALM 30.17F  
BERLIN CLOUDY 32 27 81 SW5 30.09F  
WHITEFIELD CLOUDY 33 25 72 CALM 30.11F  
JAFFREY FAIR 34 27 75 SW5 30.20F  
KEENE FAIR 25 24 96 CALM 30.22F  
LEBANON FAIR 27 23 85 CALM 30.16F  
MT WASHINGTON BLWGSNOW 14 14 100 W66 N/A VSB 0 WCI -14  

 
 
VTZ005-007-008-191000-  
VERMONT  
 
CITY SKY/WX TMP DP RH WIND PRES REMARKS
 
ST JOHNSBURY N/A 34 24 67 MISG 30.11F  
MONTPELIER CLOUDY 34 27 75 S8 30.14F  
BURLINGTON CLOUDY 40 28 62 S13 30.13F  

 
 
MAZ007-012-024-CTZ003-RIZ002-NYZ038-NYZ072-191000-  
SOUTHERN NEW ENGLAND AND NY  
 
CITY SKY/WX TMP DP RH WIND PRES REMARKS
 
BOSTON FAIR 39 28 64 SW9 30.25S  
WORCESTER FAIR 32 24 72 W13 30.21F  
NANTUCKET FAIR 42 28 57 NW10 30.27R  
PROVIDENCE FAIR 32 26 78 SW3 30.29S  
HARTFORD FAIR 35 26 69 SW9 30.27S  
ALBANY FAIR 32 26 78 S5 30.25F  
NEW YORK CITY FAIR 47 27 45 SW7 30.30F  

 
 
ANZ081-ANZ082-ANZ150-NHZ014-MEZ023>029-191000-  
COASTAL MARINE OBSERVATIONS  
 
STATION/POSITION TIME TEMP WIND PRES WAVE
 
AIR SEA DIR/SP/G HT/PER  
(UTC) (F) (DEG/KT/KT) (MB) (FT/S)  
MOUNT DESERT ROC 0900 41 270/ 14/ 20 1021.7R  
MATINICUS ROCK 0800 42 290/ 18/ 20 1021.3F  
ISLE OF SHOALS 0800 40 260/ 16/ 18 1023.0F  
JEFFREYS LEDGE 0806 55 N/A 3/ 4  

 
   
............KEY...........
 
 
WCI - WIND CHILL  
TC - TEMPERATURE IN CELSIUS  
VSB - VISIBILITY
IN MILES  
HX - HEAT INDEX  
FAIR- INDICATES FEW OR NO CLOUDS BELOW 12,000 FT, WITH NO  
SIGNIFICANT WEATHER AND/OR S TO VISIBILITY.  
 
 
 
CLICK HERE TO GO TO PREVIOUS BULLETINS.

The Nexlab ME Page
The Nexlab NH Page Main Text Page